Regional Weather Roundup
Issued by NWS Newport/Morehead, NC

Current Version | Previous Version | Graphics & Text | Print | Product List | Glossary On
Versions: 1 2 3 4 5 6 7 8 9 10 11 12 13 14 15 16 17 18 19 20 21 22 23 24 25 26 27 28 29 30 31 32 33 34 35 36 37 38 39 40 41 42 43 44 45 46 47 48 49 50
000 ASUS42 KMHX 041025 RWRMHX WEATHER ROUNDUP FOR EASTERN NORTH CAROLINA NATIONAL WEATHER SERVICE NEWPORT/MOREHEAD CITY NC 600 AM EDT SAT JUL 04 2015 NOTE: "FAIR" INDICATES FEW OR NO CLOUDS BELOW 12,000 FEET WITH NO SIGNIFICANT WEATHER AND/OR OBSTRUCTIONS TO VISIBILITY NCZ015>017-031-032-045>047-102-103-041100- NORTH COAST CITY SKY/WX TMP DP RH WIND PRES REMARKS EDENTON CLOUDY 74 70 86 W12G25 29.91R ELIZABETH CITY PTCLDY 73 71 93 SW14 29.88R KITTY HAWK PTSUNNY 75 72 89 W10G22 29.87R MANTEO CLOUDY 75 72 90 W15G22 29.90R $$ NCZ045>047-081-094-103-104-041100- CENTRAL COAST CITY SKY/WX TMP DP RH WIND PRES REMARKS FRISCO PTCLDY 76 69 79 W14G24 29.92R SWANQUARTER N/A 77 N/A N/A SW18G24 29.88S $$ NCZ095-097-098-100-101-041100- SOUTHERN COAST CITY SKY/WX TMP DP RH WIND PRES REMARKS BEAUFORT CLOUDY 79 73 82 W15G28 29.96R CEDAR ISLAND N/A 77 N/A N/A SW13G21 29.97S JACKSONVILLE NOT AVBL PINEY ISLAND PTSUNNY N/A N/A N/A SW16 29.94R WILMINGTON CLEAR 78 71 79 SW14 29.97R $$ NCZ011>013-027>030-043-044-078>080-089-090>093-098-041100- COASTAL PLAIN CITY SKY/WX TMP DP RH WIND PRES REMARKS AHOSKIE PTCLDY N/A N/A N/A CALM 29.90R CLINTON CLEAR 73 70 93 SW5 29.97R ELIZABETHTOWN CLEAR 75 72 90 SW9G16 29.98R GOLDSBORO CLEAR 73 71 92 SW5 29.93R GREENVILLE PTCLDY 73 72 94 SW8 29.95R HAVELOCK PTCLDY 76 69 79 SW15 29.96R KENANSVILLE CLEAR 71 69 92 SW3 29.97R KINSTON CLEAR 73 70 89 SW7 29.95R NEW BERN CLEAR 73 69 87 SW9 29.96R RICHLANDS CLEAR 72 66 83 SW5 29.98R ROCKY MOUNT PTCLDY 71 69 93 SW5 29.93R WASHINGTON PTCLDY 72 70 92 SW9 29.93S WHITEVILLE PTCLDY 77 71 83 SW7 29.98S $$ AMZ130-135-150-152-154-156-158-170-250-252-270-ANZ085-086-088-633-658-670-041100- MARINE OBSERVATIONS STATION/POSITION TIME TEMP WIND PRES WAVE SWELL AIR SEA DIR/SP/G HT/PER HT/PER (UTC) (F) (DEG/KT/KT) (MB) (FT/S) (FT/S) CHESAPEAKE LIGHT 1000 75 230/ 20/ 22 1010.7 64 E VA BEACH 0950 78 76 240/ 16/ 19 1010.3 4/ 7 3/ 7 DUCK 1000 77 72 240/ 18/ 23 1010.7 2 E DUCK 0911 77 N/A 2/ 8 2/14 OREGON INLET 1000 77 78 230/ 21/ 25 1011.9 13E OREGON INLT 0900 69 N/A 5/ 7 HATTERAS CG 1000 78 77 240/ 13/ 21 1012.7 DIAMOND BUOY 0950 81 81 250/ 25/ 31 1012.4 9/ 7 2/15 CAPE LOOKOUT 1000 80 240/ 14/ 20 1014.3 BEAUFORT LAB 1000 80 80 250/ 8/ 13 1013.9 30 SE NEW RVR IN 0908 80 79 250/ 19/ 27 1014.5 27 SE WRIGHTSVLE 1000 80 260/ 19/ 23 N/A 5 SE WRIGHTSVLE 0908 80 78 240/ 21/ 27 1014.1 225 S CAPE HAT 0950 81 80 230/ 14/ 17 1019.0 5/ 5 3/ 8 41 SE CHARLESTON 0950 82 81 220/ 19/ 23 1016.5 6/ 6 2/ 9 $$

USA.gov is the U.S. government's official web portal to all federal, state and local government web resources and services.